Owensboro, KY

7:20 PM CST on December 03, 2016 (GMT -0600)
Owensboro-Daviess County

Weather History for KOWB - October, 2012

Change the Weather History Date:

Saturday, October 13, 2012

  Actual Average Record
Temperature  
Mean Temperature 64 °F -  
Max Temperature 79 °F 74 °F 89 °F (1989)
Min Temperature 48 °F 47 °F 28 °F (1980)
Degree Days  
Heating Degree Days 2    
Growing Degree Days 14 (Base 50)    
Moisture  
Dew Point 57 °F    
Average Humidity 83    
Maximum Humidity 100    
Minimum Humidity 56    
Precipitation  
Precipitation 0.00 in - - ()
Sea Level Pressure  
Sea Level Pressure 30.16 in    
Wind  
Wind Speed 8 mph (SSE)    
Max Wind Speed 17 mph    
Max Gust Speed 23 mph    
Visibility 7 miles    
Events      
Averages and records for this station are not official NWS values.
T = Trace of Precipitation, MM = Missing Value Source: NWS Daily Summary

Daily Weather History Graph

Daily Weather History Graph

Search for Another Location

Airport or City:

Trip Planner

Search our weather history database for the weather conditions in past years. The results will help you decide how hot, cold, wet, or windy it might be!

Date:

Astronomy

Oct. 13, 2012 Rise Set
Actual Time 6:55 AM CDT 6:13 PM CDT
Civil Twilight 6:29 AM CDT 6:39 PM CDT
Nautical Twilight 5:58 AM CDT 7:10 PM CDT
Astronomical Twilight 5:28 AM CDT 7:40 PM CDT
Moon 4:46 AM CDT (10/13) 4:55 PM CDT (10/13)
Length of Visible Light 12h 10m
Length of Day
11h 17m
Waning Crescent, 5% of the Moon is Illuminated
Oct 13
Waning Crescent
Oct 15
New
Oct 21
First Quarter
Oct 29
Full
Nov 6
Last Quarter

Hourly Weather History & Observations

Time (CDT) Temp. Dew Point Humidity Pressure Visibility Wind Dir Wind Speed Gust Speed Precip Events Conditions
12:14 AM 53.6 °F 51.8 °F 94% 30.27 in 1.8 mi East 5.8 mph - N/A   Clear
12:36 AM 51.8 °F 50.0 °F 94% 30.28 in 2.0 mi East 4.6 mph - N/A   Clear
12:47 AM 51.8 °F 50.0 °F 94% 30.27 in 1.2 mi ESE 4.6 mph - N/A   Clear
12:56 AM 50.9 °F 50.0 °F 97% 30.27 in 2.0 mi ESE 5.8 mph - N/A   Clear
1:04 AM 51.8 °F 48.2 °F 88% 30.27 in 10.0 mi ESE 4.6 mph - N/A   Clear
2:56 AM 50.0 °F 47.8 °F 92% 30.25 in 10.0 mi SE 4.6 mph - N/A   Clear
3:56 AM 50.0 °F 47.8 °F 92% 30.24 in 10.0 mi ESE 4.6 mph - N/A   Clear
5:56 AM 48.9 °F 46.9 °F 93% 30.22 in 10.0 mi SE 5.8 mph - N/A   Clear
6:56 AM 50.0 °F 48.9 °F 96% 30.22 in 7.0 mi SSE 5.8 mph - N/A   Partly Cloudy
6:57 AM 50.0 °F 48.2 °F 94% 30.22 in 10.0 mi SSE 5.8 mph - N/A   Mostly Cloudy
7:24 AM 51.8 °F 51.8 °F 100% 30.22 in 3.0 mi SE 4.6 mph - N/A   Overcast
7:56 AM 52.0 °F 50.9 °F 96% 30.22 in 2.0 mi SSE 5.8 mph - N/A   Overcast
8:56 AM 55.9 °F 54.9 °F 96% 30.21 in 1.5 mi South 8.1 mph - N/A   Overcast
9:46 AM 60.8 °F 57.2 °F 88% 30.21 in 4.0 mi South 10.4 mph - N/A   Overcast
9:56 AM 61.0 °F 57.9 °F 90% 30.20 in 5.0 mi South 10.4 mph - N/A   Mostly Cloudy
10:08 AM 62.6 °F 59.0 °F 88% 30.20 in 7.0 mi South 10.4 mph - N/A   Scattered Clouds
10:56 AM 68.0 °F 61.0 °F 78% 30.18 in 7.0 mi South 12.7 mph - N/A   Partly Cloudy
11:56 AM 73.9 °F 63.9 °F 71% 30.15 in 10.0 mi SSW 13.8 mph - N/A   Scattered Clouds
12:56 PM 77.0 °F 64.9 °F 66% 30.13 in 10.0 mi South 13.8 mph - N/A   Scattered Clouds
1:56 PM 77.9 °F 65.8 °F 66% 30.10 in 10.0 mi SSW 15.0 mph - N/A   Mostly Cloudy
2:56 PM 79.0 °F 64.9 °F 62% 30.07 in 10.0 mi SSW 16.1 mph 23.0 mph N/A   Scattered Clouds
3:56 PM 79.0 °F 64.9 °F 62% 30.05 in 10.0 mi SSW 17.3 mph - N/A   Mostly Cloudy
4:56 PM 79.0 °F 61.9 °F 56% 30.05 in 10.0 mi SSW 17.3 mph 23.0 mph N/A   Partly Cloudy
5:56 PM 75.9 °F 61.0 °F 60% 30.04 in 10.0 mi SSW 12.7 mph 19.6 mph N/A   Partly Cloudy
6:56 PM 70.9 °F 61.9 °F 73% 30.04 in 10.0 mi South 8.1 mph 17.3 mph N/A   Clear
8:56 PM 70.9 °F 63.9 °F 78% 30.03 in 10.0 mi South 12.7 mph - N/A   Clear
9:56 PM 70.9 °F 63.9 °F 78% 30.01 in 10.0 mi South 12.7 mph - N/A   Clear
10:56 PM 70.0 °F 63.9 °F 81% 30.00 in 10.0 mi South 13.8 mph - N/A   Clear